Location: Allie Creek
(37.5926°N, 89.8526°W)
Time: 12:04:32
(UTC+00:00)

USA 215 - Pass Details

Date: 26 September 2023
Orbit: 1098 x 1109 km, 123.0° (Epoch: 06 December)

Event Time Altitude Azimuth Distance (km) Brightness Sun altitude
Rises 10:30:06 0° 158° (SSE) 3,894 6.3 -16.6°
Reaches altitude 10° 10:32:46 10° 166° (SSE) 2,940 5.5 -16.1°
Maximum altitude 10:38:44 39° 233° (SW) 1,598 3.7 -15.0°
Drops below altitude 10° 10:44:44 10° 300° (WNW) 2,956 5.1 -13.8°
Enters shadow 10:45:20 - 302° (WNW) 3,165 5.2 -13.7°
